Regional Weather Roundup
Issued by NWS Charleston, WV

Home | Current Version | Previous Version | Text Only | Print | Product List | Glossary Off
Versions: 1 2 3 4 5 6 7 8 9 10 11 12 13 14 15 16 17 18 19 20 21 22 23 24 25 26 27 28

000
ASUS41 KRLX 281710
RWRRLX
West Virginia Regional Weather Roundup
National Weather Service Charleston WV
100 PM EDT FRI APR 28 2017

Note: "fair" indicates few or no clouds below 12,000 feet with no
significant weather and/or obstructions to visibility.

WVZ003-281800-
Northern Panhandle of West Virginia

CITY           SKY/WX    TMP DP  RH WIND       PRES   REMARKS
WHEELING       PTSUNNY   66  45  46 S6        30.05F
$$

WVZ009-281800-
Northwest West Virginia

CITY           SKY/WX    TMP DP  RH WIND       PRES   REMARKS
PARKERSBURG    SUNNY     73  51  46 W7        30.05F
$$

WVZ006-281800-
Western West Virginia

CITY           SKY/WX    TMP DP  RH WIND       PRES   REMARKS
HUNTINGTON     SUNNY     74  54  49 VRB5      30.00F
$$

WVZ015-281800-
West Central West Virginia

CITY           SKY/WX    TMP DP  RH WIND       PRES   REMARKS
CHARLESTON     MOSUNNY   76  57  51 E6        30.01F
$$

WVZ022-031-281800-
North Central West Virginia

CITY           SKY/WX    TMP DP  RH WIND       PRES   REMARKS
CLARKSBURG     CLOUDY    72  53  51 SW9       30.05F
MORGANTOWN     MOSUNNY   71  50  47 VRB6      30.06F
$$

WVZ025-035-042-045-281800-
Southern West Virginia

CITY           SKY/WX    TMP DP  RH WIND       PRES   REMARKS
BECKLEY        MOSUNNY   74  47  38 SW8       30.08F
LOGAN          NOT AVBL
BLUEFIELD      SUNNY     74  47  38 VRB6      30.10F
LEWISBURG      SUNNY     71  54  55 SW6       30.11S
$$

WVZ047-281800-
Northern Mountains of West Virginia

CITY           SKY/WX    TMP DP  RH WIND       PRES   REMARKS
ELKINS         SUNNY     74  49  41 CALM      30.07F
$$

WVZ052-281800-
Eastern Panhandle of West Virginia

CITY           SKY/WX    TMP DP  RH WIND       PRES   REMARKS
MARTINSBURG    SUNNY     78  53  41 W7        30.04S
PETERSBURG     SUNNY     79  58  47 E7        30.03F
$$




USA.gov is the U.S. government's official web portal to all federal, state and local government web resources and services.